User: anonymous   Login
Location: Unspecified
(0.0000°N, 0.0000°E)
Time: 04:36:04
(UTC+00:00)
Language:

STARLINK-35548 - Orbit

View from above orbital plane
View from above orbital plane
View from above satellite
View from above satellite

Ground track
Ground track

The orbit is defined by the following mean orbital elements,

1 66203U          26145.56464206 +.00000000 +00000-0 +46542-3 0 00005
2 66203  53.1586 248.1738 0000517  57.9462 302.1588 15.30200769    06
Epoch (UTC): 25 May 2026 13:33:05
Eccentricity: 0.0000517
inclination: 53.1586°
perigee height: 475 km
apogee height: 476 km
right ascension of ascending node: 248.1738°
argument of perigee: 57.9462°
revolutions per day: 15.30200769
mean anomaly at epoch: 302.1588°

The dashed part of the orbit path shows where the satellite is in the earth's shadow,  

DLR